Waupaca, WI

6:47 PM CDT on March 26, 2017 (GMT -0500)
Waupaca Municipal

Weather History for KPCZ - April, 2014

Change the Weather History Date:

Tuesday, April 22, 2014

  Actual Average Record
Temperature  
Mean Temperature 47 °F -  
Max Temperature 55 °F 60 °F 85 °F (1960)
Min Temperature 37 °F 36 °F 23 °F (1986)
Degree Days  
Heating Degree Days 18    
Moisture  
Dew Point 26 °F    
Average Humidity 46    
Maximum Humidity 70    
Minimum Humidity 26    
Precipitation  
Precipitation 0.00 in - - ()
Sea Level Pressure  
Sea Level Pressure 30.00 in    
Wind  
Wind Speed 12 mph (NNW)    
Max Wind Speed 20 mph    
Max Gust Speed 28 mph    
Visibility 10 miles    
Events      
Averages and records for this station are not official NWS values.
T = Trace of Precipitation, MM = Missing Value Source: NWS Daily Summary

Daily Weather History Graph

Daily Weather History Graph

Search for Another Location

Airport or City:

Trip Planner

Search our weather history database for the weather conditions in past years. The results will help you decide how hot, cold, wet, or windy it might be!

Date:

Astronomy

Apr. 22, 2014 Rise Set
Actual Time 6:00 AM CDT 7:49 PM CDT
Civil Twilight 5:29 AM CDT 8:20 PM CDT
Nautical Twilight 4:52 AM CDT 8:58 PM CDT
Astronomical Twilight 4:11 AM CDT 9:39 PM CDT
Moon 2:05 AM CDT (4/22) 12:35 PM CDT (4/22)
Length of Visible Light 14h 50m
Length of Day
13h 48m
Last Quarter, 46% of the Moon is Illuminated
Apr 22
Last Quarter
Apr 29
New
May 6
First Quarter
May 14
Full
May 21
Last Quarter

Hourly Weather History & Observations

Time (CDT) Temp. Windchill Dew Point Humidity Pressure Visibility Wind Dir Wind Speed Gust Speed Precip Events Conditions
12:18 AM 48.2 °F - 32.0 °F 54% 29.91 in 10.0 mi NNW 13.8 mph 19.6 mph N/A   Clear
12:38 AM 46.4 °F 42.9 °F 32.0 °F 57% 29.92 in 10.0 mi North 6.9 mph - N/A   Clear
12:58 AM 46.4 °F 40.7 °F 30.2 °F 53% 29.93 in 10.0 mi NNW 12.7 mph 19.6 mph N/A   Clear
1:18 AM 44.6 °F 36.9 °F 28.4 °F 53% 29.93 in 10.0 mi NNW 18.4 mph 27.6 mph N/A   Clear
1:38 AM 44.6 °F 38.1 °F 28.4 °F 53% 29.94 in 10.0 mi NNW 13.8 mph 19.6 mph N/A   Clear
1:58 AM 42.8 °F 35.1 °F 28.4 °F 57% 29.93 in 10.0 mi NNW 16.1 mph 23.0 mph N/A   Clear
2:18 AM 42.8 °F 35.8 °F 28.4 °F 57% 29.93 in 10.0 mi NW 13.8 mph 17.3 mph N/A   Clear
2:38 AM 42.8 °F 37.5 °F 28.4 °F 57% 29.94 in 10.0 mi NW 9.2 mph 17.3 mph N/A   Clear
2:58 AM 42.8 °F 38.6 °F 28.4 °F 57% 29.95 in 10.0 mi NW 6.9 mph 18.4 mph N/A   Clear
3:18 AM 41.0 °F 35.2 °F 28.4 °F 61% 29.95 in 10.0 mi NW 9.2 mph - N/A   Clear
3:38 AM 41.0 °F 35.8 °F 28.4 °F 61% 29.96 in 10.0 mi NW 8.1 mph - N/A   Clear
3:58 AM 41.0 °F 37.1 °F 28.4 °F 61% 29.96 in 10.0 mi NW 5.8 mph - N/A   Clear
4:18 AM 39.2 °F 33.0 °F 28.4 °F 65% 29.96 in 10.0 mi NW 9.2 mph - N/A   Clear
4:38 AM 41.0 °F 35.2 °F 28.4 °F 61% 29.96 in 10.0 mi NW 9.2 mph - N/A   Mostly Cloudy
4:58 AM 39.2 °F 32.5 °F 28.4 °F 65% 29.96 in 10.0 mi NW 10.4 mph 16.1 mph N/A   Scattered Clouds
5:18 AM 39.2 °F 33.6 °F 26.6 °F 61% 29.97 in 10.0 mi WNW 8.1 mph - N/A   Clear
5:38 AM 39.2 °F 32.5 °F 26.6 °F 61% 29.97 in 10.0 mi NW 10.4 mph - N/A   Clear
5:58 AM 41.0 °F 35.8 °F 26.6 °F 57% 29.98 in 10.0 mi NW 8.1 mph - N/A   Mostly Cloudy
6:18 AM 42.8 °F 37.0 °F 26.6 °F 53% 29.98 in 10.0 mi NW 10.4 mph 16.1 mph N/A   Overcast
6:38 AM 42.8 °F 35.8 °F 26.6 °F 53% 29.98 in 10.0 mi NW 13.8 mph 19.6 mph N/A   Overcast
6:58 AM 42.8 °F 36.2 °F 26.6 °F 53% 29.98 in 10.0 mi NNW 12.7 mph 16.1 mph N/A   Mostly Cloudy
7:18 AM 42.8 °F 36.6 °F 26.6 °F 53% 29.97 in 10.0 mi NW 11.5 mph 17.3 mph N/A   Scattered Clouds
7:38 AM 42.8 °F 35.4 °F 26.6 °F 53% 29.98 in 10.0 mi NW 15.0 mph 24.2 mph N/A   Clear
8:00 AM 44.6 °F 38.4 °F 26.6 °F 49% 29.99 in 10.0 mi NW 12.7 mph 20.7 mph N/A   Scattered Clouds
8:18 AM 44.6 °F 36.9 °F 26.6 °F 49% 29.99 in 10.0 mi NW 18.4 mph 24.2 mph N/A   Scattered Clouds
8:38 AM 44.6 °F 37.4 °F 26.6 °F 49% 29.99 in 10.0 mi NNW 16.1 mph 21.9 mph N/A   Clear
8:58 AM 46.4 °F 39.5 °F 26.6 °F 46% 30.00 in 10.0 mi NW 17.3 mph 25.3 mph N/A   Scattered Clouds
9:18 AM 46.4 °F 41.5 °F 26.6 °F 46% 30.00 in 10.0 mi NW 10.4 mph 20.7 mph N/A   Scattered Clouds
9:38 AM 46.4 °F 39.8 °F 26.6 °F 46% 30.00 in 10.0 mi NW 16.1 mph 24.2 mph N/A   Scattered Clouds
9:58 AM 46.4 °F 40.1 °F 26.6 °F 46% 29.99 in 10.0 mi NNW 15.0 mph 20.7 mph N/A   Scattered Clouds
10:20 AM 46.4 °F 40.1 °F 26.6 °F 46% 29.99 in 10.0 mi WNW 15.0 mph - N/A   Scattered Clouds
10:38 AM 48.2 °F - 26.6 °F 43% 29.99 in 10.0 mi NNW 12.7 mph 19.6 mph N/A   Scattered Clouds
11:18 AM 48.2 °F - 26.6 °F 43% 29.99 in 10.0 mi NNW 12.7 mph 20.7 mph N/A   Clear
11:38 AM 50.0 °F - 26.6 °F 40% 30.00 in 10.0 mi NNW 11.5 mph 18.4 mph N/A   Scattered Clouds
11:58 AM 50.0 °F - 26.6 °F 40% 30.00 in 10.0 mi NNW 11.5 mph 23.0 mph N/A   Scattered Clouds
12:18 PM 51.8 °F - 24.8 °F 35% 30.00 in 10.0 mi NW 15.0 mph 25.3 mph N/A   Clear
12:58 PM 51.8 °F - 24.8 °F 35% 30.00 in 10.0 mi NW 16.1 mph 23.0 mph N/A   Clear
1:18 PM 51.8 °F - 24.8 °F 35% 29.99 in 10.0 mi NNW 15.0 mph 20.7 mph N/A   Clear
1:38 PM 53.6 °F - 23.0 °F 30% 29.99 in 10.0 mi NW 13.8 mph 27.6 mph N/A   Clear
2:20 PM 53.6 °F - 23.0 °F 30% 29.99 in 10.0 mi North 15.0 mph 20.7 mph N/A   Clear
2:38 PM 55.4 °F - 23.0 °F 29% 29.99 in 10.0 mi NNW 18.4 mph 23.0 mph N/A   Clear
2:58 PM 55.4 °F - 23.0 °F 29% 29.99 in 10.0 mi NW 13.8 mph 23.0 mph N/A   Clear
3:18 PM 55.4 °F - 21.2 °F 26% 30.00 in 10.0 mi North 19.6 mph 24.2 mph N/A   Scattered Clouds
3:38 PM 55.4 °F - 21.2 °F 26% 30.00 in 10.0 mi NNW 16.1 mph 23.0 mph N/A   Clear
3:58 PM 55.4 °F - 21.2 °F 26% 30.00 in 10.0 mi NW 18.4 mph 24.2 mph N/A   Clear
4:18 PM 55.4 °F - 21.2 °F 26% 30.01 in 10.0 mi NNW 13.8 mph 21.9 mph N/A   Clear
4:38 PM 55.4 °F - 21.2 °F 26% 30.01 in 10.0 mi NW 19.6 mph 25.3 mph N/A   Scattered Clouds
5:00 PM 55.4 °F - 21.2 °F 26% 30.01 in 10.0 mi NW 15.0 mph - N/A   Scattered Clouds
5:18 PM 53.6 °F - 21.2 °F 28% 30.02 in 10.0 mi North 13.8 mph 23.0 mph N/A   Scattered Clouds
5:38 PM 53.6 °F - 21.2 °F 28% 30.01 in 10.0 mi North 12.7 mph - N/A   Clear
5:58 PM 53.6 °F - 21.2 °F 28% 30.02 in 10.0 mi NW 11.5 mph 16.1 mph N/A   Clear
6:18 PM 53.6 °F - 21.2 °F 28% 30.03 in 10.0 mi NNW 11.5 mph - N/A   Clear
6:38 PM 53.6 °F - 21.2 °F 28% 30.03 in 10.0 mi North 8.1 mph 16.1 mph N/A   Clear
6:58 PM 51.8 °F - 21.2 °F 30% 30.03 in 10.0 mi NNW 12.7 mph - N/A   Clear
7:18 PM 51.8 °F - 21.2 °F 30% 30.03 in 10.0 mi North 8.1 mph 16.1 mph N/A   Clear
7:38 PM 50.0 °F - 24.8 °F 37% 30.03 in 10.0 mi North 10.4 mph - N/A   Clear
7:58 PM 48.2 °F - 24.8 °F 40% 30.05 in 10.0 mi NNE 5.8 mph - N/A   Clear
8:20 PM 46.4 °F 42.9 °F 26.6 °F 46% 30.06 in 10.0 mi NNE 6.9 mph - N/A   Clear
8:38 PM 46.4 °F 43.5 °F 26.6 °F 46% 30.06 in 10.0 mi NNE 5.8 mph - N/A   Clear
9:18 PM 44.6 °F 41.4 °F 26.6 °F 49% 30.08 in 10.0 mi North 5.8 mph - N/A   Clear
9:40 PM 42.8 °F 41.1 °F 26.6 °F 53% 30.09 in 10.0 mi North 3.5 mph - N/A   Clear
9:58 PM 42.8 °F 41.1 °F 26.6 °F 53% 30.09 in 10.0 mi North 3.5 mph - N/A   Clear
10:18 PM 42.8 °F - 26.6 °F 53% 30.10 in 10.0 mi Calm Calm - N/A   Clear
10:38 PM 41.0 °F - 26.6 °F 57% 30.10 in 10.0 mi Calm Calm - N/A   Clear
10:58 PM 41.0 °F - 26.6 °F 57% 30.11 in 10.0 mi Calm Calm - N/A   Clear
11:18 PM 39.2 °F - 26.6 °F 61% 30.12 in 10.0 mi Calm Calm - N/A   Clear
11:38 PM 39.2 °F - 26.6 °F 61% 30.12 in 10.0 mi Calm Calm - N/A   Clear
11:58 PM 37.4 °F 34.9 °F 28.4 °F 70% 30.13 in 10.0 mi NW 3.5 mph - N/A   Clear